TimeEDT,TemperatureF,Dew PointF,Humidity,Sea Level PressureIn,VisibilityMPH,Wind Direction,Wind SpeedMPH,Gust SpeedMPH,PrecipitationIn,Events,Conditions,WindDirDegrees,DateUTC
1:53 AM,78.1,68.0,71,30.04,10.0,ENE,10.4,-,N/A,,Mostly Cloudy,60,2012-10-14 05:53:00
2:53 AM,79.0,71.1,77,30.01,10.0,NE,8.1,-,0.00,Rain,Light Rain,50,2012-10-14 06:53:00
3:53 AM,79.0,71.1,77,30.00,10.0,ENE,17.3,23.0,0.00,,Overcast,60,2012-10-14 07:53:00
4:53 AM,78.1,72.0,81,29.99,10.0,NE,11.5,-,N/A,,Overcast,50,2012-10-14 08:53:00
5:53 AM,79.0,71.1,77,29.99,10.0,ENE,15.0,21.9,N/A,,Overcast,60,2012-10-14 09:53:00
6:53 AM,79.0,71.1,77,30.00,10.0,ENE,12.7,-,N/A,,Mostly Cloudy,70,2012-10-14 10:53:00
7:53 AM,80.1,71.1,74,30.01,10.0,ENE,17.3,23.0,N/A,,Overcast,60,2012-10-14 11:53:00
8:53 AM,81.0,71.1,72,30.03,10.0,ENE,17.3,24.2,N/A,,Overcast,60,2012-10-14 12:53:00
9:27 AM,82.4,71.6,70,30.02,10.0,ENE,16.1,-,N/A,,Overcast,70,2012-10-14 13:27:00
9:41 AM,82.4,71.6,70,30.02,10.0,ENE,18.4,27.6,N/A,,Overcast,70,2012-10-14 13:41:00
9:53 AM,82.0,72.0,71,30.03,10.0,ENE,18.4,26.5,N/A,,Overcast,60,2012-10-14 13:53:00
10:14 AM,82.4,71.6,70,30.02,10.0,ENE,21.9,27.6,N/A,,Overcast,70,2012-10-14 14:14:00
10:27 AM,78.8,73.4,83,30.02,7.0,East,18.4,25.3,0.01,Rain,Light Rain,80,2012-10-14 14:27:00
10:53 AM,82.0,73.9,76,30.03,10.0,ENE,17.3,26.5,0.01,,Overcast,60,2012-10-14 14:53:00
11:35 AM,82.4,73.4,74,30.01,10.0,ENE,24.2,32.2,0.00,,Mostly Cloudy,70,2012-10-14 15:35:00
11:53 AM,84.9,73.9,69,30.01,10.0,ENE,20.7,-,0.00,,Mostly Cloudy,70,2012-10-14 15:53:00
12:44 PM,84.2,73.4,70,29.99,10.0,ENE,19.6,27.6,N/A,,Mostly Cloudy,60,2012-10-14 16:44:00
12:53 PM,84.0,73.9,72,29.99,10.0,East,23.0,28.8,N/A,,Mostly Cloudy,80,2012-10-14 16:53:00
1:42 PM,84.2,73.4,70,29.97,10.0,ENE,20.7,24.2,N/A,,Overcast,60,2012-10-14 17:42:00
1:53 PM,82.9,73.9,74,29.97,10.0,ENE,16.1,-,N/A,,Overcast,70,2012-10-14 17:53:00
2:01 PM,84.2,73.4,70,29.96,10.0,ENE,23.0,29.9,N/A,,Mostly Cloudy,70,2012-10-14 18:01:00
2:53 PM,86.0,73.0,65,29.95,10.0,ENE,19.6,25.3,N/A,,Mostly Cloudy,70,2012-10-14 18:53:00
3:00 PM,87.8,73.4,62,29.95,10.0,ENE,18.4,-,N/A,,Mostly Cloudy,70,2012-10-14 19:00:00
3:44 PM,80.6,75.2,84,29.97,1.5,East,18.4,29.9,0.04,Rain,Heavy Rain,90,2012-10-14 19:44:00
3:53 PM,77.0,73.9,90,29.96,1.5,East,11.5,19.6,0.15,Rain,Heavy Rain,100,2012-10-14 19:53:00
3:55 PM,75.2,73.4,94,29.96,3.0,East,9.2,19.6,0.00,Rain,Heavy Rain,90,2012-10-14 19:55:00
4:02 PM,77.0,73.4,89,29.96,7.0,East,9.2,-,N/A,Rain-Thunderstorm,Heavy Thunderstorms and Rain,100,2012-10-14 20:02:00
4:53 PM,79.0,73.9,84,29.96,10.0,East,15.0,20.7,N/A,Rain-Thunderstorm,Heavy Thunderstorms and Rain,80,2012-10-14 20:53:00
5:34 PM,78.8,75.2,89,29.96,7.0,ENE,16.1,20.7,N/A,Rain-Thunderstorm,Heavy Thunderstorms and Rain,70,2012-10-14 21:34:00
5:35 PM,78.8,75.2,89,29.96,5.0,East,17.3,20.7,N/A,Rain-Thunderstorm,Heavy Thunderstorms and Rain,80,2012-10-14 21:35:00
5:49 PM,75.2,73.4,94,29.96,10.0,ENE,12.7,-,N/A,,Overcast,70,2012-10-14 21:49:00
5:53 PM,75.9,73.0,91,29.96,10.0,ENE,11.5,-,N/A,,Overcast,60,2012-10-14 21:53:00
6:53 PM,77.0,75.0,94,29.94,10.0,NE,6.9,-,0.01,,Mostly Cloudy,50,2012-10-14 22:53:00
7:53 PM,77.0,75.9,96,29.95,10.0,North,5.8,-,0.23,,Mostly Cloudy,360,2012-10-14 23:53:00
8:53 PM,78.1,75.9,93,29.96,10.0,ENE,5.8,-,N/A,,Partly Cloudy,60,2012-10-15 00:53:00
9:53 PM,78.1,75.0,90,29.96,10.0,ENE,6.9,-,N/A,,Clear,70,2012-10-15 01:53:00
10:53 PM,78.1,73.9,87,29.96,10.0,ENE,9.2,-,N/A,,Clear,60,2012-10-15 02:53:00
11:49 PM,78.8,75.2,89,29.95,10.0,ENE,4.6,-,0.00,Rain,Light Rain,60,2012-10-15 03:49:00
11:53 PM,78.1,75.0,90,29.95,10.0,ENE,6.9,-,0.00,Rain,Light Rain,70,2012-10-15 03:53:00